SCP
0 0 0 0 0 0 0 0 0 0 0 0 0 0 0 0 0 0 0 0 0 0
0 0 0 0 0 0 0 0 0 0 0 0 0 0 0 0 0 0 0 0 0 0
0 0 0 0 0 0 0 0 0 0 0 0 0 0 0 0 0 0 0 0 0 0
0 0 0 0 0 0 0 0 0 0 0 0 0 0 0 0 0 0 0 0 0 0
0 0 0 0 0 0 0 0 0 0 0 0 0 0 0 0 0 0 0 0 0 0
0 0 0 0 0 0 0 0 0 0 0 0 0 0 0 0 0 0 0 0 0 0
0 0 0 0 0 0 0 0 0 0 0 0 0 0 0 0 0 0 0 0 0 0
0 0 0 0 0 0 0 0 0 0 0 0 0 0 0 0 0 0 0 0 0 0
0 0 0 0 0 0 0 0 0 0 0 0 0 0 0 0 0 0 0 0 0 0
0 0 0 0 0 0 0 0 0 0 0 0 0 0 0 0 0 0 0 0 0 0
0 0 0 0 0 0 0 0 0 0 0 0 0 0 0 0 0 0 0 0 0 0
0 0 0 0 0 0 0 0 0 0 0 0 0 0 0 0 0 0 0 0 0 0
0 0 0 0 0 0 0 0 0 0 0 0 0 0 0 0 0 0 0 0 0 0
0 0 0 0 0 0 0 0 0 0 0 0 0 0 0 0 0 0 0 0 0 0
Wind_Speed_500mb
23 23 21 19 18 19 19 20 19 18 20 21 22 22 21 21 23 25 25 26 25 22
30 29 26 22 21 22 23 23 23 23 23 23 23 22 22 23 24 25 25 25 25 25
36 34 30 28 27 26 25 25 26 26 26 26 27 26 27 27 27 27 27 27 26 25
42 40 37 36 34 31 29 30 29 28 28 28 28 29 30 29 30 29 28 27 28 26
46 46 45 43 39 36 35 35 33 32 31 30 31 30 31 31 31 31 29 29 30 28
54 54 53 49 45 43 41 40 39 36 34 32 33 33 33 34 33 32 31 30 30 29
63 62 59 54 51 49 47 45 44 41 38 36 35 36 35 35 34 32 32 34 33 31
69 69 66 61 57 55 52 50 47 46 43 40 39 38 38 37 37 35 34 33 34 34
73 74 75 71 66 63 59 56 52 51 47 46 43 42 40 40 39 38 37 36 35 35
71 74 79 80 74 70 65 60 58 55 51 49 44 45 41 43 43 42 41 40 41 39
65 68 74 80 79 75 69 66 62 59 54 51 47 46 44 44 45 44 42 43 42 41
54 57 67 78 81 79 75 69 66 60 55 53 50 48 44 45 44 45 45 43 41 41
46 50 56 63 69 74 78 73 68 63 57 53 52 50 48 45 44 45 45 42 43 40
48 50 52 53 59 65 71 72 69 62 54 58 53 49 49 45 46 44 43 45 45 40
Wind_Direction_500mb
257 260 267 279 291 299 304 304 302 310 316 320 326 326 326 327 326 324 324 324 323 322
259 260 267 275 283 288 290 293 299 304 311 317 319 318 319 320 316 314 314 313 313 312
255 259 263 267 271 275 284 292 295 299 303 308 314 315 313 311 310 308 308 309 310 308
253 257 258 261 265 269 276 282 288 292 297 302 305 304 306 306 306 306 305 305 306 305
254 255 257 259 261 265 270 274 278 283 288 292 297 297 300 301 300 300 300 299 299 301
254 255 257 258 259 261 265 269 274 279 285 288 291 293 296 297 297 296 297 296 295 295
256 257 258 258 257 258 263 266 270 276 280 284 287 290 291 293 294 293 289 290 291 290
260 258 257 256 256 258 261 265 268 272 276 281 284 287 290 291 291 289 286 284 286 288
262 258 256 255 254 256 259 262 264 268 271 275 282 286 288 288 288 286 285 288 287 285
265 260 257 256 253 255 258 260 262 266 269 274 279 284 287 287 288 287 287 286 284 286
268 263 260 259 255 254 256 258 260 263 265 270 277 281 284 285 287 287 286 285 284 284
276 273 259 260 259 256 255 256 258 260 264 270 277 280 281 281 284 286 287 285 283 283
291 280 269 269 266 260 255 256 257 258 262 269 274 278 281 279 280 281 284 285 285 284
294 288 280 271 266 261 255 253 253 255 263 268 272 275 277 277 277 279 279 279 282 285
Wind_Speed_850mb
23 23 21 19 18 19 19 20 19 18 20 21 22 22 21 21 23 25 25 26 25 22
30 29 26 22 21 22 23 23 23 23 23 23 23 22 22 23 24 25 25 25 25 25
36 34 30 28 27 26 25 25 26 26 26 26 27 26 27 27 27 27 27 27 26 25
42 40 37 36 34 31 29 30 29 28 28 28 28 29 30 29 30 29 28 27 28 26
46 46 45 43 39 36 35 35 33 32 31 30 31 30 31 31 31 31 29 29 30 28
54 54 53 49 45 43 41 40 39 36 34 32 33 33 33 34 33 32 31 30 30 29
63 62 59 54 51 49 47 45 44 41 38 36 35 36 35 35 34 32 32 34 33 31
69 69 66 61 57 55 52 50 47 46 43 40 39 38 38 37 37 35 34 33 34 34
73 74 75 71 66 63 59 56 52 51 47 46 43 42 40 40 39 38 37 36 35 35
71 74 79 80 74 70 65 60 58 55 51 49 44 45 41 43 43 42 41 40 41 39
65 68 74 80 79 75 69 66 62 59 54 51 47 46 44 44 45 44 42 43 42 41
54 57 67 78 81 79 75 69 66 60 55 53 50 48 44 45 44 45 45 43 41 41
46 50 56 63 69 74 78 73 68 63 57 53 52 50 48 45 44 45 45 42 43 40
48 50 52 53 59 65 71 72 69 62 54 58 53 49 49 45 46 44 43 45 45 40
Wind_Direction_850mb
257 260 267 279 291 299 304 304 302 310 316 320 326 326 326 327 326 324 324 324 323 322
259 260 267 275 283 288 290 293 299 304 311 317 319 318 319 320 316 314 314 313 313 312
255 259 263 267 271 275 284 292 295 299 303 308 314 315 313 311 310 308 308 309 310 308
253 257 258 261 265 269 276 282 288 292 297 302 305 304 306 306 306 306 305 305 306 305
254 255 257 259 261 265 270 274 278 283 288 292 297 297 300 301 300 300 300 299 299 301
254 255 257 258 259 261 265 269 274 279 285 288 291 293 296 297 297 296 297 296 295 295
256 257 258 258 257 258 263 266 270 276 280 284 287 290 291 293 294 293 289 290 291 290
260 258 257 256 256 258 261 265 268 272 276 281 284 287 290 291 291 289 286 284 286 288
262 258 256 255 254 256 259 262 264 268 271 275 282 286 288 288 288 286 285 288 287 285
265 260 257 256 253 255 258 260 262 266 269 274 279 284 287 287 288 287 287 286 284 286
268 263 260 259 255 254 256 258 260 263 265 270 277 281 284 285 287 287 286 285 284 284
276 273 259 260 259 256 255 256 258 260 264 270 277 280 281 281 284 286 287 285 283 283
291 280 269 269 266 260 255 256 257 258 262 269 274 278 281 279 280 281 284 285 285 284
294 288 280 271 266 261 255 253 253 255 263 268 272 275 277 277 277 279 279 279 282 285